(165298) = 2000 TA40 = 2002 CB181

Discovered at Socorro on 2000-10-01 by LINEAR.

Orbit

Orbit type: Main Belt

Note: WebGL enabled browser required.

epoch2024-03-31.0
epoch JD2460400.5
perihelion date2024-10-24.07051
perihelion JD2460607.57051
argument of perihelion (°)220.50401
ascending node (°)103.09727
inclination (°)6.22947
eccentricity0.1418794
perihelion distance (AU)1.9685258
Tisserand w.r.t. Jupiter3.6
ΔV w.r.t. Earth (km/sec)8.9
semimajor axis (AU)2.2939966
mean anomaly (°)301.26014
mean daily motion (°/day)0.28367080
aphelion distance (AU)2.619
period (years)3.47
P-vector [x]0.80117169
P-vector [y]-0.51719756
P-vector [z]-0.30104917
Q-vector [x]0.58902799
Q-vector [y]0.77037384
Q-vector [z]0.24407002
absolute magnitude16.55
phase slope0.15
uncertainty0
referenceMPEC 2024-C115
observations used599
oppositions13
arc length (days)8222
first opposition used2000
last opposition used2023
residual rms (arc-secs)0.74
perturbers coarse indicatorM-v
perturbers precise indicator003Ek
first observation date used2000-09-19.0
last observation date used2023-03-25.0
computer nameMPCLINUX
JD of orbit computation2456966.731507
perihelion JD uncertainty (days)8.6226E-05
argument of perihelion uncertainty (°)7.7584E-05
ascending node uncertainty (°)7.4150E-05
inclination uncertainty (°)4.0133E-06
eccentricity uncertainty 6.9958E-08
perihelion distance uncertainty (AU)1.5928E-07
Minimum Orbit Intersection Distances (in AU)
for orbit epoch: 2460200.5, reference: E2024-CB5
Mercury1.54709
Venus1.24027
Earth0.95969
Mars0.58174
Jupiter2.66008
Saturn6.52725
Uranus15.8532
Neptune27.5791

Observations

612 total observations over interval: 2000 09 19.48564 – 2023 03 25.280491
These data are available for download (format description).

Date (UT) J2000 RA J2000 Dec Magn Location Ref
2000 09 19.48564 23 48 04.75 -14 04 57.1 19.7   608 – Haleakala-AMOS MPS 21471
2000 09 19.49595 23 48 04.14 -14 05 00.6 19.7   608 – Haleakala-AMOS MPS 21471
2000 09 19.50726 23 48 03.55 -14 05 05.3 20.0   608 – Haleakala-AMOS MPS 21471
2000 09 21.35307 23 46 27.26 -14 15 56.3 18.1 R 699 – Lowell Observatory-LONEOS MPS 30187
2000 09 21.37285 23 46 26.07 -14 16 02.7   699 – Lowell Observatory-LONEOS MPS 30187
2000 09 21.39264 23 46 25.16 -14 16 10.5   699 – Lowell Observatory-LONEOS MPS 30187
2000 09 21.41247 23 46 24.14 -14 16 16.8   699 – Lowell Observatory-LONEOS MPS 30187
2000 09 29.19072 23 39 58.10 -14 52 04.1 18.1 R 699 – Lowell Observatory-LONEOS MPS 26695
2000 09 29.20001 23 39 57.68 -14 52 04.7   699 – Lowell Observatory-LONEOS MPS 26695
2000 09 29.20929 23 39 57.20 -14 52 07.0   699 – Lowell Observatory-LONEOS MPS 26695
2000 09 29.21859 23 39 56.75 -14 52 08.7   699 – Lowell Observatory-LONEOS MPS 26695
2000 10 01.19136 23 38 27.08 -14 58 28.5 18.4   704 – Lincoln Laboratory ETS, New Mexico MPS 21471
2000 10 01.20705 23 38 26.30 -14 58 31.4 18.1   704 – Lincoln Laboratory ETS, New Mexico MPS 21471
2000 10 01.22206 23 38 25.57 -14 58 33.0 18.3   704 – Lincoln Laboratory ETS, New Mexico MPS 21471
2000 10 01.23772 23 38 24.88 -14 58 36.9 18.5   704 – Lincoln Laboratory ETS, New Mexico MPS 21471
2000 10 02.19539 23 37 43.17 -15 01 16.6 17.5 R 699 – Lowell Observatory-LONEOS MPS 21471
2000 10 02.21482 23 37 42.25 -15 01 21.8   699 – Lowell Observatory-LONEOS MPS 21471
2000 10 02.23421 23 37 41.38 -15 01 22.7   699 – Lowell Observatory-LONEOS MPS 21471
2000 10 02.25357 23 37 40.49 -15 01 25.9   699 – Lowell Observatory-LONEOS MPS 21471
2000 11 27.080980 23 41 55.278 -10 53 31.94 20.42 V 645 – Apache Point-Sloan Digital Sky Survey MPS 79797
2000 11 27.084452 23 41 55.447 -10 53 30.01 21.40   645 – Apache Point-Sloan Digital Sky Survey MPS 79797
2002 01 25.30787 09 10 23.64 +21 04 25.7 19.4   704 – Lincoln Laboratory ETS, New Mexico MPS 52103
2002 01 25.32272 09 10 22.68 +21 04 33.3 20.1   704 – Lincoln Laboratory ETS, New Mexico MPS 52103
2002 01 25.33768 09 10 21.77 +21 04 39.6 20.2   704 – Lincoln Laboratory ETS, New Mexico MPS 52103
2002 02 10.23641 08 53 35.95 +22 45 29.5 19.8   704 – Lincoln Laboratory ETS, New Mexico MPS 50363
2002 02 10.25055 08 53 35.07 +22 45 33.3 19.7   704 – Lincoln Laboratory ETS, New Mexico MPS 50363
2002 02 10.26760 08 53 34.01 +22 45 39.0 19.7   704 – Lincoln Laboratory ETS, New Mexico MPS 50363
2002 02 10.28181 08 53 33.08 +22 45 44.1 19.9   704 – Lincoln Laboratory ETS, New Mexico MPS 50363
2002 02 10.29788 08 53 32.07 +22 45 49.1 20.2   704 – Lincoln Laboratory ETS, New Mexico MPS 50363
2002 02 12.25265 08 51 32.14 +22 56 24.8 20.0   704 – Lincoln Laboratory ETS, New Mexico MPS 50363
2002 02 12.26688 08 51 31.21 +22 56 30.2 20.0   704 – Lincoln Laboratory ETS, New Mexico MPS 50363
2002 02 12.28134 08 51 30.39 +22 56 34.4 20.2   704 – Lincoln Laboratory ETS, New Mexico MPS 50363
2002 02 12.29556 08 51 29.52 +22 56 38.6 20.0   704 – Lincoln Laboratory ETS, New Mexico MPS 50363
2003 05 30.31938 16 46 34.65 -15 57 00.3 18.5   704 – Lincoln Laboratory ETS, New Mexico MPS 178229
2003 05 30.32995 16 46 33.93 -15 57 00.9 19.1   704 – Lincoln Laboratory ETS, New Mexico MPS 178229
2003 05 30.36164 16 46 31.76 -15 57 02.3 19.2   704 – Lincoln Laboratory ETS, New Mexico MPS 178229
2003 07 08.27148 16 13 10.10 -17 25 08.2 20.0   644 – Palomar Mountain/NEAT MPS 178229
2003 07 08.29272 16 13 09.61 -17 25 12.9 20.7   644 – Palomar Mountain/NEAT MPS 178229
2003 07 08.31394 16 13 09.08 -17 25 18.1 20.7   644 – Palomar Mountain/NEAT MPS 178229
2007 08 11.32798 00 52 07.94 -04 26 25.6 19.2   704 – Lincoln Laboratory ETS, New Mexico MPS 213034
2007 08 11.33979 00 52 08.17 -04 26 27.7 19.7   704 – Lincoln Laboratory ETS, New Mexico MPS 213034
2007 08 11.35147 00 52 08.29 -04 26 31.1 20.0   704 – Lincoln Laboratory ETS, New Mexico MPS 213034
2007 08 11.36310 00 52 08.52 -04 26 33.6 20.1   704 – Lincoln Laboratory ETS, New Mexico MPS 213034
2007 08 11.37472 00 52 08.75 -04 26 36.0 19.6   704 – Lincoln Laboratory ETS, New Mexico MPS 213034
2007 08 22.32210 00 53 43.26 -05 19 51.4 19.3   704 – Lincoln Laboratory ETS, New Mexico MPS 214365
2007 08 22.33474 00 53 43.18 -05 19 56.9 19.5   704 – Lincoln Laboratory ETS, New Mexico MPS 214365
2007 08 22.34706 00 53 43.10 -05 20 01.0 19.2   704 – Lincoln Laboratory ETS, New Mexico MPS 214365
2007 08 22.35937 00 53 43.09 -05 20 05.6 19.4   704 – Lincoln Laboratory ETS, New Mexico MPS 214365
2007 08 22.37168 00 53 42.97 -05 20 10.0 19.7   704 – Lincoln Laboratory ETS, New Mexico MPS 214365
2007 09 05.34161 00 49 49.98 -06 55 24.0 19.1 V 703 – Catalina Sky Survey MPS 214988
2007 09 05.34980 00 49 49.65 -06 55 26.7 18.3 V 703 – Catalina Sky Survey MPS 214988
2007 09 05.35804 00 49 49.47 -06 55 30.2 18.4 V 703 – Catalina Sky Survey MPS 214988
2007 09 05.36633 00 49 49.18 -06 55 34.5 18.4 V 703 – Catalina Sky Survey MPS 214988
2007 09 12.25705 00 45 40.03 -07 48 26.6 18.6 V 703 – Catalina Sky Survey MPS 214988
2007 09 12.26350 00 45 39.85 -07 48 29.8 18.7 V 703 – Catalina Sky Survey MPS 214988
2007 09 12.26993 00 45 39.52 -07 48 33.2 18.5 V 703 – Catalina Sky Survey MPS 214988
2007 09 12.27639 00 45 39.24 -07 48 36.1 18.2 V 703 – Catalina Sky Survey MPS 214988
2007 09 15.31111 00 43 26.42 -08 11 50.9 18.2 R 699 – Lowell Observatory-LONEOS MPS 216000
2007 09 15.33671 00 43 25.19 -08 12 02.7   699 – Lowell Observatory-LONEOS MPS 216000
2007 09 15.36231 00 43 23.97 -08 12 14.6   699 – Lowell Observatory-LONEOS MPS 216000
2007 09 16.31433 00 42 39.88 -08 19 26.6 18.4   704 – Lincoln Laboratory ETS, New Mexico MPS 216000
2007 09 16.32589 00 42 39.31 -08 19 30.5 18.8   704 – Lincoln Laboratory ETS, New Mexico MPS 216000
2007 09 16.33755 00 42 38.75 -08 19 36.5 18.6   704 – Lincoln Laboratory ETS, New Mexico MPS 216000
2007 10 04.26161 00 26 57.01 -10 13 02.3 18.5 V 703 – Catalina Sky Survey MPS 218046
2007 10 04.26811 00 26 56.61 -10 13 04.7 18.7 V 703 – Catalina Sky Survey MPS 218046
2007 10 04.27461 00 26 56.25 -10 13 06.1 18.7 V 703 – Catalina Sky Survey MPS 218046
2007 10 04.28112 00 26 55.93 -10 13 08.4 18.3 V 703 – Catalina Sky Survey MPS 218046
2007 10 15.21225 00 17 56.75 -10 47 26.7 18.8 r 699 – Lowell Observatory-LONEOS MPS 220191
2007 10 15.23050 00 17 55.98 -10 47 28.8 18.9 r 699 – Lowell Observatory-LONEOS MPS 220191
2007 10 15.24869 00 17 55.05 -10 47 30.7 19.0 r 699 – Lowell Observatory-LONEOS MPS 220191
2007 10 15.25711 00 17 54.67 -10 47 32.2 18.8 V 703 – Catalina Sky Survey MPS 220191
2007 10 15.26569 00 17 54.27 -10 47 32.4 18.9 V 703 – Catalina Sky Survey MPS 220191
2007 10 15.26694 00 17 54.22 -10 47 33.4 18.9 r 699 – Lowell Observatory-LONEOS MPS 220191
2007 10 15.27429 00 17 53.88 -10 47 33.1 19.2 V 703 – Catalina Sky Survey MPS 220191
2007 10 15.28290 00 17 53.48 -10 47 34.9 18.8 V 703 – Catalina Sky Survey MPS 220191
2007 11 02.17924 00 09 08.67 -10 30 49.6 18.6 V 703 – Catalina Sky Survey MPS 226586
2007 11 02.18575 00 09 08.46 -10 30 46.7 19.9 V 703 – Catalina Sky Survey MPS 226586
2007 11 02.19226 00 09 08.38 -10 30 45.1 19.6 V 703 – Catalina Sky Survey MPS 226586
2007 11 02.19874 00 09 08.20 -10 30 43.2 19.1 V 703 – Catalina Sky Survey MPS 226586
2007 11 11.16143 00 08 21.90 -09 51 28.3 19.3   704 – Lincoln Laboratory ETS, New Mexico MPS 228122
2007 11 11.17369 00 08 21.87 -09 51 24.6 19.9   704 – Lincoln Laboratory ETS, New Mexico MPS 228122
2007 11 11.18594 00 08 21.88 -09 51 19.5 19.3   704 – Lincoln Laboratory ETS, New Mexico MPS 228122
2008 10 29.48166 09 22 25.59 +16 46 26.1 21.5 V 691 – Steward Observatory, Kitt Peak-Spacewatch MPS 262931
2008 10 29.49425 09 22 26.47 +16 46 22.7 21.1 V 691 – Steward Observatory, Kitt Peak-Spacewatch MPS 262931
2008 10 29.50685 09 22 27.29 +16 46 20.3 21.0 V 691 – Steward Observatory, Kitt Peak-Spacewatch MPS 262931
2008 12 30.37808 09 53 40.02 +16 55 32.1 20.6 V G96 – Mt. Lemmon Survey MPS 271592
2008 12 30.39027 09 53 39.80 +16 55 35.4 20.7 V G96 – Mt. Lemmon Survey MPS 271592
2008 12 30.40454 09 53 39.55 +16 55 39.2 20.3 V G96 – Mt. Lemmon Survey MPS 271592
